This is the latest recevied weather packets stored in our database for station/object JE6MIQ-13. If no packets are shown the sender has not sent any weather packets the latest 10 day(s).
| Time | Temp. | Humidity | Pressure | Rain* | Wind** | Luminosity | Snow |
|---|---|---|---|---|---|---|---|
| 1777714353 | 22.22° C | 25% | 1009.4 hPa | 0 mm | - | - | - |
| 1777713752 | 22.78° C | 25% | 1008.9 hPa | 0 mm | - | - | - |
| 1777713153 | 23.33° C | 25% | 1008.9 hPa | 0 mm | - | - | - |
| 1777712552 | 23.89° C | 25% | 1008.8 hPa | 0 mm | - | - | - |
| 1777711952 | 24.44° C | 25% | 1008.5 hPa | 0 mm | - | - | - |
| 1777711353 | 24.44° C | 25% | 1008.5 hPa | 0 mm | - | - | - |
| 1777710753 | 25° C | 25% | 1008.8 hPa | 0 mm | - | - | - |
| 1777710151 | 25° C | 25% | 1008.6 hPa | 0 mm | - | - | - |
| 1777709552 | 25.56° C | 25% | 1008.6 hPa | 0 mm | - | - | - |
| 1777708953 | 26.11° C | 25% | 1008.8 hPa | 0 mm | - | - | - |
| 1777708351 | 26.67° C | 25% | 1009 hPa | 0 mm | - | - | - |
| 1777707753 | 27.22° C | 25% | 1009 hPa | 0 mm | - | - | - |
| 1777707152 | 28.33° C | 25% | 1009.2 hPa | 0 mm | - | - | - |
| 1777706553 | 28.89° C | 25% | 1009.6 hPa | 0 mm | - | - | - |
| 1777705952 | 30° C | 25% | 1009.6 hPa | 0 mm | - | - | - |
| 1777705352 | 30.56° C | 25% | 1009.7 hPa | 0 mm | - | - | - |
| 1777704752 | 30.56° C | 25% | 1010.1 hPa | 0 mm | - | - | - |
| 1777704152 | 30.56° C | 25% | 1010.1 hPa | 0 mm | - | - | - |
| 1777703552 | 31.11° C | 25% | 1010.3 hPa | 0 mm | - | - | - |
| 1777702951 | 30° C | 25% | 1010.6 hPa | 0 mm | - | - | - |
| 1777702353 | 31.11° C | 25% | 1010.7 hPa | 0 mm | - | - | - |
| 1777701753 | 30.56° C | 25% | 1010.7 hPa | 0 mm | - | - | - |
| 1777701153 | 31.11° C | 25% | 1010.9 hPa | 0 mm | - | - | - |
| 1777700552 | 31.11° C | 25% | 1010.9 hPa | 0 mm | - | - | - |
| 1777699953 | 31.67° C | 25% | 1011.2 hPa | 0 mm | - | - | - |
* Rain latest hour (hover to see other rain measurements)
** Current wind speed in m/s (hover to see current wind gust speed)